Location: Emblem
(62.4273°N, 6.4710°E)
Time: 19:20:26
(UTC+02:00)

Vanguard 2 - Pass Details

Date: 15 February 2023
Orbit: 553 x 2927 km, 32.9° (Epoch: 27 March)

Event Time Altitude Azimuth Distance (km) Brightness Sun altitude
Rises 23:04:38 0° 237° (WSW) 4,993 11.7 -36.8°
Enters shadow 23:08:43 - 220° (SW) 4,684 11.3 -37.0°
Reaches altitude 10° 23:12:17 10° 204° (SSW) 4,686 - -37.2°
Maximum altitude 23:14:31 11° 194° (SSW) 4,809 - -37.4°
Drops below altitude 10° 23:16:53 10° 184° (S) 5,026 - -37.5°
Sets 23:27:05 0° 154° (SSE) 6,573 - -38.0°
